CW5346 Weather Reports


Display with metric or nautical units.
time (UTC)temp
F
wind
direction
speed
MPH
gust
MPH
rain 1hr
in
rain 24hr
in
rain mn
in
humidity
%
barometer
mb
20190717041526 76 242 0.0 0.0 0.00 0.00 0.00 88 1014.4
20190717040525 76 242 0.0 0.0 0.00 0.00 0.00 87 1014.4
20190717035526 76 242 0.0 0.0 0.00 0.00 0.00 87 1014.5
20190717034526 76 242 0.0 0.0 0.00 0.00 0.00 87 1014.6
20190717033526 76 242 0.0 0.0 0.00 0.00 0.00 87 1014.8
20190717032525 76 242 0.0 0.0 0.00 0.00 0.00 87 1014.8
20190717031525 76 242 0.0 0.0 0.00 0.00 0.00 87 1014.8
20190717030525 76 242 0.0 0.0 0.00 0.00 0.00 86 1014.9
20190717025525 76 242 0.0 0.0 0.00 0.00 0.00 85 1014.9
20190717024525 76 242 0.0 0.0 0.00 0.00 0.00 85 1015.1
20190717023525 76 242 0.0 0.0 0.00 0.00 0.00 85 1015.1
20190717022524 76 242 0.0 0.0 0.00 0.00 0.00 85 1015.0
20190717021525 77 242 0.0 0.0 0.00 0.00 0.00 85 1015.0
20190717020524 77 242 0.0 0.0 0.00 0.00 0.00 83 1015.0
20190717015525 77 242 0.0 0.0 0.00 0.00 0.00 83 1014.9
20190717014523 78 242 0.0 0.0 0.00 0.00 0.00 82 1014.9
20190717013524 78 242 0.0 0.0 0.00 0.00 0.00 81 1014.8
20190717012524 79 242 0.0 0.0 0.00 0.00 0.00 80 1014.9
20190717011525 79 242 0.0 0.0 0.00 0.00 0.00 79 1014.8
20190717010525 80 242 0.0 0.0 0.00 0.00 0.00 78 1014.7
20190717005526 80 242 0.0 0.0 0.00 0.00 0.00 77 1014.7
20190717004526 81 242 0.0 0.0 0.00 0.00 0.00 76 1014.6
20190717003527 81 242 0.0 0.0 0.00 0.00 0.00 75 1014.5
20190717002527 82 242 0.0 0.0 0.00 0.00 0.00 74 1014.5
20190717001528 83 242 0.0 0.0 0.00 0.00 0.00 72 1014.5
20190717000528 83 242 0.0 0.0 0.00 0.00 0.00 72 1014.5
20190716235529 84 242 0.0 3.0 0.00 0.00 0.00 70 1014.5
20190716234529 84 241 0.0 3.0 0.00 0.00 0.00 70 1014.4
20190716233529 85 242 0.0 1.0 0.00 0.00 0.00 69 1014.3
20190716232531 85 241 0.0 7.0 0.00 0.00 0.00 69 1014.2
20190716231531 85 264 0.0 2.0 0.00 0.00 0.00 69 1014.2
20190716230531 86 266 0.0 3.0 0.00 0.00 0.00 66 1014.1
20190716225531 86 263 1.0 10.0 0.00 0.00 0.00 65 1014.1
20190716224532 86 235 1.0 5.0 0.00 0.00 0.00 64 1014.1
20190716223532 87 250 0.0 8.0 0.00 0.00 0.00 65 1014.0
20190716222533 87 240 1.0 10.0 0.00 0.00 0.00 64 1014.0
20190716221533 87 213 0.0 10.0 0.00 0.00 0.00 62 1014.0
20190716220534 87 223 1.0 7.0 0.00 0.00 0.00 61 1014.0
20190716215534 87 249 2.0 11.0 0.00 0.00 0.00 61 1014.0
20190716214535 87 218 3.0 10.0 0.00 0.00 0.00 60 1014.0
20190716213534 88 239 2.0 11.0 0.00 0.00 0.00 63 1014.0
20190716212536 88 206 2.0 9.0 0.00 0.00 0.00 60 1014.1
20190716211536 88 225 2.0 11.0 0.00 0.00 0.00 59 1014.1
20190716210537 88 228 0.0 5.0 0.00 0.00 0.00 61 1014.2
20190716205537 88 208 2.0 9.0 0.00 0.00 0.00 58 1014.2
20190716204537 88 191 3.0 12.0 0.00 0.00 0.00 57 1014.3
20190716203537 89 236 1.0 7.0 0.00 0.00 0.00 57 1014.3
20190716202539 89 212 3.0 9.0 0.00 0.00 0.00 56 1014.4
20190716201539 89 212 0.0 6.0 0.00 0.00 0.00 57 1014.5
20190716200539 90 224 2.0 8.0 0.00 0.00 0.00 57 1014.6
20190716195539 89 219 1.0 10.0 0.00 0.00 0.00 58 1014.8
20190716194541 89 305 0.0 5.0 0.00 0.00 0.00 55 1014.9
20190716193541 89 330 0.0 7.0 0.00 0.00 0.00 54 1014.8
20190716192541 89 218 4.0 10.0 0.00 0.00 0.00 57 1015.0
20190716191542 89 214 0.0 8.0 0.00 0.00 0.00 57 1015.1
20190716190543 89 238 1.0 7.0 0.00 0.00 0.00 54 1015.2
20190716185543 89 224 0.0 7.0 0.00 0.00 0.00 55 1015.2
20190716184543 89 282 1.0 11.0 0.00 0.00 0.00 54 1015.4
20190716183544 89 223 4.0 10.0 0.00 0.00 0.00 57 1015.5
20190716182544 88 277 0.0 7.0 0.00 0.00 0.00 54 1015.5
20190716181545 88 213 1.0 8.0 0.00 0.00 0.00 56 1015.5
20190716180545 88 267 3.0 12.0 0.00 0.00 0.00 53 1015.7
20190716175546 88 186 4.0 14.0 0.00 0.00 0.00 52 1015.5
20190716174546 88 251 2.0 9.0 0.00 0.00 0.00 61 1015.6
20190716173547 87 209 2.0 7.0 0.00 0.00 0.00 55 1015.7
20190716172546 87 266 0.0 5.0 0.00 0.00 0.00 53 1015.8
20190716171547 87 269 0.0 7.0 0.00 0.00 0.00 56 1015.9
20190716170547 88 207 0.0 13.0 0.00 0.00 0.00 53 1015.9
20190716165549 87 205 6.0 13.0 0.00 0.00 0.00 52 1016.1
20190716164549 88 215 1.0 11.0 0.00 0.00 0.00 52 1016.2
20190716163550 87 234 2.0 9.0 0.00 0.00 0.00 56 1016.4
20190716162550 87 202 2.0 13.0 0.00 0.00 0.00 56 1016.4
20190716161550 86 224 2.0 10.0 0.00 0.00 0.00 56 1016.5
20190716160550 86 219 1.0 9.0 0.00 0.00 0.00 57 1016.4
20190716155552 86 213 0.0 12.0 0.00 0.00 0.00 59 1016.5
20190716154552 85 264 1.0 10.0 0.00 0.00 0.00 56 1016.5
20190716153552 85 194 1.0 12.0 0.00 0.00 0.00 60 1016.5
20190716152553 85 236 2.0 13.0 0.00 0.00 0.00 59 1016.6
20190716151553 85 204 3.0 11.0 0.00 0.00 0.00 59 1016.7
20190716150554 85 213 4.0 9.0 0.00 0.00 0.00 60 1016.8
20190716145554 84 212 6.0 13.0 0.00 0.00 0.00 61 1016.8
20190716144554 83 241 3.0 10.0 0.00 0.00 0.00 63 1016.8
20190716143555 83 235 1.0 7.0 0.00 0.00 0.00 65 1017.0
20190716142556 83 218 2.0 10.0 0.00 0.00 0.00 64 1017.1
20190716141556 82 229 2.0 9.0 0.00 0.00 0.00 62 1017.2
20190716140556 81 231 2.0 5.0 0.00 0.00 0.00 64 1017.4
20190716135557 81 240 0.0 5.0 0.00 0.00 0.00 64 1017.4
20190716134558 80 241 0.0 2.0 0.00 0.00 0.00 64 1017.5
20190716133559 79 241 1.0 4.0 0.00 0.00 0.00 65 1017.4
20190716132558 78 241 0.0 1.0 0.00 0.00 0.00 67 1017.4
20190716131559 77 242 0.0 2.0 0.00 0.00 0.00 70 1017.4
20190716130559 76 242 0.0 1.0 0.00 0.00 0.00 69 1017.4
20190716125601 75 241 0.0 3.0 0.00 0.00 0.00 76 1017.5
20190716124600 73 242 0.0 1.0 0.00 0.00 0.00 79 1017.6
20190716123601 71 242 0.0 1.0 0.00 0.00 0.00 82 1017.5
20190716122604 69 241 0.0 1.0 0.00 0.00 0.00 87 1017.6
20190716121603 67 242 0.0 0.0 0.00 0.00 0.00 89 1017.6
20190716120601 65 242 0.0 0.0 0.00 0.00 0.00 90 1017.5
20190716115603 64 242 0.0 0.0 0.00 0.00 0.00 92 1017.4
20190716114706 63 242 0.0 0.0 0.00 0.00 0.00 93 1017.4
20190716113705 63 242 0.0 0.0 0.00 0.00 0.00 93 1017.5
20190716112706 62 242 0.0 0.0 0.00 0.00 0.00 94 1017.5
20190716111705 61 242 0.0 0.0 0.00 0.00 0.00 94 1017.4
20190716110705 61 242 0.0 0.0 0.00 0.00 0.00 93 1017.4
20190716105706 61 242 0.0 0.0 0.00 0.00 0.00 94 1017.2
20190716104705 60 242 0.0 0.0 0.00 0.00 0.00 93 1017.2
20190716103705 60 242 0.0 0.0 0.00 0.00 0.00 93 1017.2
20190716102705 60 242 0.0 0.0 0.00 0.00 0.00 93 1017.3
20190716101705 60 242 0.0 0.0 0.00 0.00 0.00 93 1017.3
20190716100704 60 242 0.0 0.0 0.00 0.00 0.00 93 1017.2
20190716095704 60 242 0.0 0.0 0.00 0.00 0.00 93 1017.1
20190716094704 60 242 0.0 0.0 0.00 0.00 0.00 92 1016.9
20190716093704 60 242 0.0 0.0 0.00 0.00 0.00 92 1016.8
20190716092704 60 242 0.0 0.0 0.00 0.00 0.00 92 1016.8
20190716091704 60 242 0.0 0.0 0.00 0.00 0.00 92 1016.8
20190716090704 60 242 0.0 0.0 0.00 0.00 0.00 92 1016.8
20190716085704 61 242 0.0 0.0 0.00 0.00 0.00 92 1016.9
20190716084705 61 242 0.0 0.0 0.00 0.00 0.00 92 1016.8
20190716083704 61 242 0.0 0.0 0.00 0.00 0.00 92 1016.6
20190716082704 61 242 0.0 0.0 0.00 0.00 0.00 92 1016.7
20190716081703 61 242 0.0 0.0 0.00 0.00 0.00 92 1016.5
20190716080703 61 242 0.0 0.0 0.00 0.00 0.00 92 1016.7
20190716075703 61 242 0.0 0.0 0.00 0.00 0.00 92 1016.6
20190716074703 61 242 0.0 0.0 0.00 0.00 0.00 92 1016.4
20190716073703 61 242 0.0 0.0 0.00 0.00 0.00 92 1016.5
20190716072703 62 242 0.0 0.0 0.00 0.00 0.00 92 1016.5
20190716071703 62 242 0.0 0.0 0.00 0.00 0.00 91 1016.6
20190716070702 62 242 0.0 0.0 0.00 0.00 0.00 91 1016.5
20190716065702 62 242 0.0 0.0 0.00 0.00 0.00 91 1016.6
20190716064703 62 242 0.0 0.0 0.00 0.00 0.00 91 1016.7
20190716063702 62 242 0.0 0.0 0.00 0.00 0.00 91 1016.7
20190716062702 63 242 0.0 0.0 0.00 0.00 0.00 91 1016.8
20190716061702 63 242 0.0 0.0 0.00 0.00 0.00 91 1016.9
20190716060702 63 242 0.0 0.0 0.00 0.00 0.00 91 1017.0
20190716055702 63 242 0.0 0.0 0.00 0.00 0.00 91 1017.0
20190716054701 64 242 0.0 0.0 0.00 0.00 0.00 90 1016.9
20190716053701 64 242 0.0 0.0 0.00 0.00 0.00 90 1016.9
20190716052701 64 242 0.0 0.0 0.00 0.00 0.00 90 1016.8
20190716051701 64 242 0.0 0.0 0.00 0.00 0.00 90 1016.9
20190716050701 65 242 0.0 0.0 0.00 0.00 0.00 89 1016.9
20190716045701 65 242 0.0 0.0 0.00 0.00 0.00 89 1016.8
20190716044701 65 242 0.0 0.0 0.00 0.00 0.00 89 1016.7
20190716043700 66 242 0.0 0.0 0.00 0.00 0.00 88 1016.8
20190716042700 66 242 0.0 0.0 0.00 0.00 0.00 88 1016.8